weather.gov     
National Weather Service

Other Surface Observations
NWS Homepage
This page is being discontinued on March 12, 2014.
The same data is available at this site. Please update your bookmarks.
Thank you, and we apologize for the inconvenience.
Please send an email to SR-SRH.Webmaster@noaa.gov with any concerns.


Current Version
Previous Version:    01  02  03  04  05  06  07  08  09  10  11  12  13  14  15  16  17  18  19  20  21  22  23  24  25  26  27  28  29  30  
   31  32  33  34  35  36  37  38  39  40  41  42  43  44  45  46  47  48  49  50  51  52  53  54  55  56  57  58  59  60  
[Printable]
109
SXUS52 KCHS 200810
OSOCHS

MARINE OBSERVATIONS
NATIONAL WEATHER SERVICE CHARLESTON SC
400 AM EDT MON OCT 20 2014

...DOWNTOWN CHARLESTON AND HARBOR...

CITY           SKY/WX    TMP DP  RH WIND       PRES   REMARKS
WATERFRONT PRK NOT AVBL
FORT JOHNSON   NOT AVBL

...LAKE MOULTRIE...

CITY           SKY/WX    TMP DP  RH WIND       PRES   REMARKS
PINOPOLIS        N/A     59  48  67 SE2       30.05R

...LAKE AND SUPPLEMENTAL COASTAL OBSERVATIONS...

STATION/POSITION TIME  TEMP    WIND        PRES    WAVE   SWELL
                       AIR SEA DIR/SP/G            HT/PER HT/PER/DIR
                 (UTC) (F)     (DEG/KT/KT) (MB)    (FT/S) (FT/S/D)
FORT PULASKI     0800   64      CALM  /  1 1019.7F
SAPELO ISLAND    NOT AVBL
UPR LAKE MARION  NOT AVBL
WINYAH BAY       0700   54     340/  3     1020.0S
LAKE MURRAY      0700   59     150/  4/  5 1019.3F
ACE BASIN NERRS  0700   52        CALM     1020.0S


...C-MAN AND BUOY OBSERVATIONS...

STATION/POSITION TIME  TEMP    WIND        PRES    WAVE   SWELL
                       AIR SEA DIR/SP/G            HT/PER HT/PER/DIR
                 (UTC) (F)     (DEG/KT/KT) (MB)    (FT/S) (FT/S/D)
BUOY 41004       0800   69 80  100/  6/ 10 1019.3F   2/11   2/11
BUOY 41008       0800   71 76  100/  8/ 10 1018.7F   3/ 6   2/ 70/ 6
FOLLY BEACH CMAN 0700   61     340/  4/  5 1020.5F
CAPERS NS BUOY   0700   66     350/  8/ 10   N/A
FRIPP NS BUOY    NOT AVBL
5E ST. MARYS GA  0800      77                N/A     3/13   2/100/13
FRYING PAN BUOY  0800   66 75  100/  8/ 12 1021.0F   2/11   2/120/11
BUOY 41025       0800   61     350/  6/ 10 1020.3R   4/12   3/ 60/12
CAPE LOOKOUT NC  0700   59     350/  7/  8 1020.3F
BUOY 41002       0750   70 80   50/  8/ 12 1019.3S   5/ 8   5/ 10/ 8
BUOY 41010       0800   76 81   40/ 12/ 16 1016.8F   5/ 7   3/360/ 7
BUOY 41012       NOT AVBL
ST AUGUSTINE FL  0800   75      90/  8/  9 1017.9F


$$




U.S. Dept. of Commerce
NOAA National Weather Service
1325 East West Highway
Silver Spring, MD 20910
E-mail: w-nws.webmaster@noaa.gov
Page last modified: May 16, 2007
NATIONAL WEATHER SERVICE: for Safety, for Work, for Fun - FOR LIFE